23-06-2022, 00:00:08,    171,    0.0,   15.8,   0.00,   0.00, 1010.2,   63.6, -999.0
23-06-2022, 00:00:18,    170,    0.0,   15.7,   0.00,   0.00, 1010.2,   63.7, -999.0
23-06-2022, 00:00:28,    171,    0.0,   15.8,   0.00,   0.00, 1010.2,   63.8, -999.0
23-06-2022, 00:00:38,    171,    0.0,   15.7,   0.00,   0.00, 1010.2,   63.9, -999.0
23-06-2022, 00:00:48,    170,    0.0,   15.7,   0.00,   0.00, 1010.2,   63.9, -999.0
23-06-2022, 00:00:58,    171,    0.0,   15.7,   0.00,   0.00, 1010.2,   63.8, -999.0
23-06-2022, 00:01:08,    171,    0.0,   15.7,   0.00,   0.00, 1010.2,   64.1, -999.0
23-06-2022, 00:01:18,    170,    0.0,   15.7,   0.00,   0.00, 1010.2,   64.1, -999.0
23-06-2022, 00:01:27,    171,    0.0,   15.7,   0.00,   0.00, 1010.2,   64.2, -999.0
23-06-2022, 00:01:38,    171,    0.0,   15.6,   0.00,   0.00, 1010.2,   64.2, -999.0
23-06-2022, 00:01:47,    171,    0.0,   15.6,   0.00,   0.00, 1010.2,   64.2, -999.0
23-06-2022, 00:01:57,    171,    0.0,   15.7,   0.00,   0.00, 1010.2,   64.3, -999.0
23-06-2022, 00:02:08,    171,    0.0,   15.7,   0.00,   0.00, 1010.2,   64.4, -999.0
23-06-2022, 00:02:17,    171,    0.0,   15.7,   0.00,   0.00, 1010.2,   64.5, -999.0
23-06-2022, 00:02:27,    171,    0.0,   15.7,   0.00,   0.00, 1010.2,   64.4, -999.0
23-06-2022, 00:02:37,    171,    0.0,   15.7,   0.00,   0.00, 1010.2,   64.5, -999.0
23-06-2022, 00:02:47,    171,    0.0,   15.7,   0.00,   0.00, 1010.2,   64.6, -999.0
23-06-2022, 00:02:57,    171,    0.0,   15.7,   0.00,   0.00, 1010.2,   64.6, -999.0
23-06-2022, 00:03:07,    171,    0.0,   15.7,   0.00,   0.00, 1010.2,   64.5, -999.0
23-06-2022, 00:03:17,    171,    0.0,   15.7,   0.00,   0.00, 1010.2,   64.6, -999.0
23-06-2022, 00:03:27,    170,    0.0,   15.7,   0.00,   0.00, 1010.2,   64.5, -999.0
23-06-2022, 00:03:37,    171,    0.0,   15.6,   0.00,   0.00, 1010.2,   64.5, -999.0
23-06-2022, 00:03:47,    171,    0.0,   15.7,   0.00,   0.00, 1010.2,   64.5, -999.0
23-06-2022, 00:03:57,    171,    0.0,   15.7,   0.00,   0.00, 1010.2,   64.4, -999.0
23-06-2022, 00:04:07,    171,    0.0,   15.7,   0.00,   0.00, 1010.2,   64.5, -999.0
23-06-2022, 00:04:17,    171,    0.0,   15.7,   0.00,   0.00, 1010.2,   64.4, -999.0
23-06-2022, 00:04:26,    170,    0.0,   15.7,   0.00,   0.00, 1010.2,   64.4, -999.0
23-06-2022, 00:04:36,    171,    0.0,   15.7,   0.00,   0.00, 1010.2,   64.3, -999.0
23-06-2022, 00:04:47,    171,    0.0,   15.7,   0.00,   0.00, 1010.1,   64.4, -999.0
23-06-2022, 00:04:56,    171,    0.0,   15.6,   0.00,   0.00, 1010.1,   64.5, -999.0
23-06-2022, 00:05:06,    170,    0.0,   15.6,   0.00,   0.00, 1010.2,   64.7, -999.0
23-06-2022, 00:05:17,    171,    0.0,   15.6,   0.00,   0.00, 1010.1,   64.8, -999.0
23-06-2022, 00:05:26,    171,    0.0,   15.5,   0.00,   0.00, 1010.1,   64.7, -999.0
23-06-2022, 00:05:36,    171,    0.0,   15.6,   0.00,   0.00, 1010.1,   64.7, -999.0
23-06-2022, 00:05:46,    171,    0.0,   15.5,   0.00,   0.00, 1010.2,   64.7, -999.0
23-06-2022, 00:05:56,    171,    0.0,   15.6,   0.00,   0.00, 1010.2,   64.7, -999.0
23-06-2022, 00:06:06,    171,    0.0,   15.5,   0.00,   0.00, 1010.1,   65.0, -999.0
23-06-2022, 00:06:16,    171,    0.0,   15.5,   0.00,   0.00, 1010.2,   65.0, -999.0
23-06-2022, 00:06:26,    171,    0.0,   15.5,   0.00,   0.00, 1010.2,   65.1, -999.0
23-06-2022, 00:06:36,    171,    0.0,   15.3,   0.00,   0.00, 1010.2,   65.2, -999.0
23-06-2022, 00:06:46,    171,    0.0,   15.5,   0.00,   0.00, 1010.2,   65.1, -999.0
23-06-2022, 00:06:56,    171,    0.0,   15.5,   0.00,   0.00, 1010.2,   65.2, -999.0
23-06-2022, 00:07:05,    171,    0.0,   15.5,   0.00,   0.00, 1010.2,   65.3, -999.0
23-06-2022, 00:07:16,    171,    0.0,   15.3,   0.00,   0.00, 1010.2,   65.4, -999.0
23-06-2022, 00:07:26,    171,    0.0,   15.4,   0.00,   0.00, 1010.2,   65.3, -999.0
23-06-2022, 00:07:35,    170,    0.0,   15.4,   0.00,   0.00, 1010.2,   65.3, -999.0
23-06-2022, 00:07:46,    171,    0.0,   15.4,   0.00,   0.00, 1010.2,   65.3, -999.0
23-06-2022, 00:07:56,    171,    0.0,   15.4,   0.00,   0.00, 1010.2,   65.5, -999.0
23-06-2022, 00:08:05,    171,    0.0,   15.4,   0.00,   0.00, 1010.2,   65.5, -999.0
23-06-2022, 00:08:15,    171,    0.0,   15.3,   0.00,   0.00, 1010.2,   65.6, -999.0
23-06-2022, 00:08:25,    169,    0.0,   15.3,   0.00,   0.00, 1010.2,   65.7, -999.0
23-06-2022, 00:08:35,    171,    0.0,   15.3,   0.00,   0.00, 1010.2,   65.8, -999.0
23-06-2022, 00:08:45,    171,    0.0,   15.4,   0.00,   0.00, 1010.2,   65.7, -999.0
23-06-2022, 00:08:55,    171,    0.0,   15.3,   0.00,   0.00, 1010.2,   65.7, -999.0
23-06-2022, 00:09:05,    171,    0.0,   15.3,   0.00,   0.00, 1010.2,   65.7, -999.0
23-06-2022, 00:09:15,    171,    0.0,   15.3,   0.00,   0.00, 1010.2,   65.8, -999.0
23-06-2022, 00:09:25,    171,    0.0,   15.3,   0.00,   0.00, 1010.2,   65.7, -999.0
23-06-2022, 00:09:35,    171,    0.0,   15.3,   0.00,   0.00, 1010.2,   65.8, -999.0
23-06-2022, 00:09:45,    171,    0.0,   15.3,   0.00,   0.00, 1010.2,   65.9, -999.0
23-06-2022, 00:09:55,    171,    0.0,   15.2,   0.00,   0.00, 1010.2,   66.2, -999.0
23-06-2022, 00:10:05,    171,    0.0,   15.2,   0.00,   0.00, 1010.2,   66.3, -999.0
23-06-2022, 00:10:15,    171,    0.0,   15.3,   0.00,   0.00, 1010.2,   66.2, -999.0
23-06-2022, 00:10:25,    171,    0.0,   15.3,   0.00,   0.00, 1010.2,   66.2, -999.0
23-06-2022, 00:10:34,    170,    0.0,   15.1,   0.00,   0.00, 1010.2,   66.1, -999.0
23-06-2022, 00:10:44,    171,    0.0,   15.2,   0.00,   0.00, 1010.2,   66.4, -999.0
23-06-2022, 00:10:55,    171,    0.0,   15.2,   0.00,   0.00, 1010.2,   66.3, -999.0
23-06-2022, 00:11:04,    171,    0.0,   15.3,   0.00,   0.00, 1010.2,   66.2, -999.0
23-06-2022, 00:11:14,    171,    0.0,   15.2,   0.00,   0.00, 1010.2,   66.3, -999.0
23-06-2022, 00:11:24,    171,    0.0,   15.2,   0.00,   0.00, 1010.2,   66.4, -999.0
23-06-2022, 00:11:34,    171,    0.0,   15.2,   0.00,   0.00, 1010.2,   66.4, -999.0
23-06-2022, 00:11:44,    171,    0.0,   15.3,   0.00,   0.00, 1010.2,   66.4, -999.0
23-06-2022, 00:11:54,    171,    0.0,   15.2,   0.00,   0.00, 1010.2,   66.4, -999.0
23-06-2022, 00:12:04,    171,    0.0,   15.2,   0.00,   0.00, 1010.2,   66.3, -999.0
23-06-2022, 00:12:14,    171,    0.0,   15.2,   0.00,   0.00, 1010.2,   66.3, -999.0
23-06-2022, 00:12:24,    171,    0.0,   15.2,   0.00,   0.00, 1010.2,   66.3, -999.0
23-06-2022, 00:12:34,    171,    0.0,   15.3,   0.00,   0.00, 1010.2,   66.5, -999.0
23-06-2022, 00:12:44,    171,    0.0,   15.3,   0.00,   0.00, 1010.2,   66.4, -999.0
23-06-2022, 00:12:54,    171,    0.0,   15.1,   0.00,   0.00, 1010.2,   66.4, -999.0
23-06-2022, 00:13:04,    171,    0.0,   15.2,   0.00,   0.00, 1010.2,   66.5, -999.0
23-06-2022, 00:13:13,    171,    0.0,   15.3,   0.00,   0.00, 1010.2,   66.5, -999.0
23-06-2022, 00:13:24,    171,    0.0,   15.3,   0.00,   0.00, 1010.2,   66.6, -999.0
23-06-2022, 00:13:34,    171,    0.0,   15.3,   0.00,   0.00, 1010.2,   66.6, -999.0
23-06-2022, 00:13:43,    171,    0.0,   15.3,   0.00,   0.00, 1010.2,   66.5, -999.0
23-06-2022, 00:13:54,    171,    0.0,   15.2,   0.00,   0.00, 1010.2,   66.7, -999.0
23-06-2022, 00:14:03,    171,    0.0,   15.2,   0.00,   0.00, 1010.2,   66.6, -999.0
23-06-2022, 00:14:13,    170,    0.0,   15.1,   0.00,   0.00, 1010.1,   66.6, -999.0
23-06-2022, 00:14:23,    171,    0.0,   15.2,   0.00,   0.00, 1010.2,   66.7, -999.0
23-06-2022, 00:14:33,    171,    0.0,   15.2,   0.00,   0.00, 1010.2,   66.6, -999.0
23-06-2022, 00:14:43,    171,    0.0,   15.1,   0.00,   0.00, 1010.1,   66.8, -999.0
23-06-2022, 00:14:53,    171,    0.0,   15.1,   0.00,   0.00, 1010.1,   66.6, -999.0
23-06-2022, 00:15:03,    170,    0.0,   15.2,   0.00,   0.00, 1010.1,   66.7, -999.0
23-06-2022, 00:15:13,    171,    0.0,   15.1,   0.00,   0.00, 1010.1,   66.8, -999.0
23-06-2022, 00:15:23,    171,    0.0,   15.1,   0.00,   0.00, 1010.1,   66.8, -999.0
23-06-2022, 00:15:33,    171,    0.0,   15.1,   0.00,   0.00, 1010.1,   66.9, -999.0
23-06-2022, 00:15:43,    171,    0.0,   15.0,   0.00,   0.00, 1010.1,   66.8, -999.0
23-06-2022, 00:15:53,    173,    0.0,   15.0,   0.00,   0.00, 1010.1,   66.9, -999.0
23-06-2022, 00:16:03,    171,    0.0,   15.1,   0.00,   0.00, 1010.1,   67.0, -999.0
23-06-2022, 00:16:13,    171,    0.0,   15.1,   0.00,   0.00, 1010.1,   67.0, -999.0
23-06-2022, 00:16:23,    171,    0.0,   15.1,   0.00,   0.00, 1010.0,   66.9, -999.0
23-06-2022, 00:16:33,    171,    0.0,   15.1,   0.00,   0.00, 1010.0,   67.1, -999.0
23-06-2022, 00:16:42,    171,    0.0,   15.0,   0.00,   0.00, 1010.0,   67.3, -999.0
23-06-2022, 00:16:52,    171,    0.0,   15.0,   0.00,   0.00, 1010.1,   67.1, -999.0
23-06-2022, 00:17:03,    171,    0.0,   15.0,   0.00,   0.00, 1010.0,   67.1, -999.0
23-06-2022, 00:17:12,    171,    0.0,   15.0,   0.00,   0.00, 1010.0,   67.2, -999.0
23-06-2022, 00:17:22,    171,    0.0,   15.0,   0.00,   0.00, 1010.0,   67.2, -999.0
23-06-2022, 00:17:32,    171,    0.0,   15.0,   0.00,   0.00, 1010.0,   67.2, -999.0
23-06-2022, 00:17:42,    171,    0.0,   15.0,   0.00,   0.00, 1010.1,   67.1, -999.0
23-06-2022, 00:17:52,    171,    0.0,   14.9,   0.00,   0.00, 1010.0,   67.1, -999.0
23-06-2022, 00:18:02,    171,    0.0,   15.0,   0.00,   0.00, 1010.1,   67.2, -999.0
23-06-2022, 00:18:12,    171,    0.0,   14.9,   0.00,   0.00, 1010.0,   67.2, -999.0
23-06-2022, 00:18:22,    171,    0.0,   15.0,   0.00,   0.00, 1010.1,   67.4, -999.0
23-06-2022, 00:18:32,    171,    0.0,   15.0,   0.00,   0.00, 1010.0,   67.4, -999.0
23-06-2022, 00:18:42,    172,    0.0,   14.9,   0.00,   0.00, 1010.1,   67.4, -999.0
23-06-2022, 00:18:52,    171,    0.0,   15.0,   0.00,   0.00, 1010.1,   67.5, -999.0
23-06-2022, 00:19:02,    171,    0.0,   15.0,   0.00,   0.00, 1010.0,   67.5, -999.0
23-06-2022, 00:19:12,    171,    0.0,   15.0,   0.00,   0.00, 1010.0,   67.6, -999.0
23-06-2022, 00:19:21,    171,    0.0,   15.1,   0.00,   0.00, 1010.0,   67.6, -999.0
23-06-2022, 00:19:32,    171,    0.0,   14.9,   0.00,   0.00, 1010.0,   67.6, -999.0
23-06-2022, 00:19:42,    171,    0.0,   15.0,   0.00,   0.00, 1010.0,   67.3, -999.0
23-06-2022, 00:19:51,    171,    0.0,   15.0,   0.00,   0.00, 1010.0,   67.5, -999.0
23-06-2022, 00:20:01,    171,    0.0,   15.1,   0.00,   0.00, 1010.1,   67.4, -999.0
23-06-2022, 00:20:11,    171,    0.0,   15.1,   0.00,   0.00, 1010.1,   67.5, -999.0
23-06-2022, 00:20:21,    171,    0.0,   15.1,   0.00,   0.00, 1010.1,   67.5, -999.0
23-06-2022, 00:20:31,    171,    0.0,   15.1,   0.00,   0.00, 1010.1,   67.3, -999.0
23-06-2022, 00:20:41,    171,    0.0,   15.1,   0.00,   0.00, 1010.1,   67.5, -999.0
23-06-2022, 00:20:51,    171,    0.0,   15.1,   0.00,   0.00, 1010.1,   67.5, -999.0
23-06-2022, 00:21:01,    171,    0.0,   15.1,   0.00,   0.00, 1010.1,   67.4, -999.0
23-06-2022, 00:21:11,    171,    0.0,   15.0,   0.00,   0.00, 1010.1,   67.4, -999.0
23-06-2022, 00:21:21,    171,    0.0,   15.0,   0.00,   0.00, 1010.1,   67.4, -999.0
23-06-2022, 00:21:31,    171,    0.0,   15.0,   0.00,   0.00, 1010.1,   67.5, -999.0
23-06-2022, 00:21:41,    171,    0.0,   15.1,   0.00,   0.00, 1010.1,   67.4, -999.0
23-06-2022, 00:21:51,    171,    0.0,   15.0,   0.00,   0.00, 1010.0,   67.6, -999.0
23-06-2022, 00:22:01,    171,    0.0,   15.0,   0.00,   0.00, 1010.0,   67.8, -999.0
23-06-2022, 00:22:11,    171,    0.0,   15.0,   0.00,   0.00, 1010.0,   67.5, -999.0
23-06-2022, 00:22:21,    171,    0.0,   15.1,   0.00,   0.00, 1010.1,   67.6, -999.0
23-06-2022, 00:22:30,    171,    0.0,   15.0,   0.00,   0.00, 1010.1,   67.6, -999.0
23-06-2022, 00:22:41,    170,    0.0,   15.1,   0.00,   0.00, 1010.1,   67.6, -999.0
23-06-2022, 00:22:50,    171,    0.0,   15.1,   0.00,   0.00, 1010.0,   67.6, -999.0
23-06-2022, 00:23:00,    171,    0.0,   15.0,   0.00,   0.00, 1010.1,   67.6, -999.0
23-06-2022, 00:23:10,    171,    0.0,   15.0,   0.00,   0.00, 1010.1,   67.6, -999.0
23-06-2022, 00:23:20,    171,    0.0,   15.1,   0.00,   0.00, 1010.1,   67.6, -999.0
23-06-2022, 00:23:30,    171,    0.0,   15.1,   0.00,   0.00, 1010.1,   67.5, -999.0
23-06-2022, 00:23:40,    171,    0.0,   15.1,   0.00,   0.00, 1010.1,   67.5, -999.0
23-06-2022, 00:23:50,    171,    0.0,   15.0,   0.00,   0.00, 1010.1,   67.5, -999.0
23-06-2022, 00:24:00,    171,    0.0,   15.0,   0.00,   0.00, 1010.1,   67.6, -999.0
23-06-2022, 00:24:10,    171,    0.0,   15.0,   0.00,   0.00, 1010.1,   67.6, -999.0
23-06-2022, 00:24:20,    171,    0.0,   15.0,   0.00,   0.00, 1010.1,   67.7, -999.0
23-06-2022, 00:24:30,    171,    0.0,   15.0,   0.00,   0.00, 1010.0,   67.7, -999.0
23-06-2022, 00:24:40,    171,    0.0,   15.1,   0.00,   0.00, 1010.1,   67.7, -999.0
23-06-2022, 00:24:50,    171,    0.0,   15.1,   0.00,   0.00, 1010.0,   67.7, -999.0
23-06-2022, 00:24:59,    171,    0.0,   15.1,   0.00,   0.00, 1010.1,   67.7, -999.0
23-06-2022, 00:25:10,    170,    0.0,   15.0,   0.00,   0.00, 1010.0,   67.8, -999.0
23-06-2022, 00:25:20,    171,    0.0,   15.0,   0.00,   0.00, 1010.0,   67.7, -999.0
23-06-2022, 00:25:29,    171,    0.0,   15.1,   0.00,   0.00, 1010.0,   67.7, -999.0
23-06-2022, 00:25:39,    171,    0.0,   14.9,   0.00,   0.00, 1010.1,   67.6, -999.0
23-06-2022, 00:25:50,    171,    0.0,   15.0,   0.00,   0.00, 1010.0,   67.5, -999.0
23-06-2022, 00:25:59,    171,    0.0,   14.9,   0.00,   0.00, 1010.0,   67.5, -999.0
23-06-2022, 00:26:09,    171,    0.0,   15.0,   0.00,   0.00, 1010.0,   67.7, -999.0
23-06-2022, 00:26:19,    171,    0.0,   15.0,   0.00,   0.00, 1010.0,   67.8, -999.0
23-06-2022, 00:26:29,    171,    0.0,   15.0,   0.00,   0.00, 1010.0,   67.9, -999.0
23-06-2022, 00:26:39,    170,    0.0,   14.9,   0.00,   0.00, 1010.0,   67.9, -999.0
23-06-2022, 00:26:49,    171,    0.0,   15.0,   0.00,   0.00, 1010.0,   67.8, -999.0
23-06-2022, 00:26:59,    171,    0.0,   15.0,   0.00,   0.00, 1010.0,   67.9, -999.0
23-06-2022, 00:27:09,    171,    0.0,   15.0,   0.00,   0.00, 1010.0,   67.9, -999.0
23-06-2022, 00:27:19,    171,    0.0,   15.0,   0.00,   0.00, 1010.0,   68.1, -999.0
23-06-2022, 00:27:29,    171,    0.0,   15.0,   0.00,   0.00, 1010.1,   68.1, -999.0
23-06-2022, 00:27:39,    171,    0.0,   15.0,   0.00,   0.00, 1010.0,   68.1, -999.0
23-06-2022, 00:27:49,    171,    0.0,   15.0,   0.00,   0.00, 1010.0,   68.1, -999.0
23-06-2022, 00:27:59,    170,    0.0,   15.0,   0.00,   0.00, 1010.0,   68.1, -999.0
23-06-2022, 00:28:08,    171,    0.0,   15.0,   0.00,   0.00, 1010.0,   68.1, -999.0
23-06-2022, 00:28:19,    171,    0.0,   15.1,   0.00,   0.00, 1010.0,   68.1, -999.0
23-06-2022, 00:28:29,    171,    0.0,   15.0,   0.00,   0.00, 1010.0,   68.1, -999.0
23-06-2022, 00:28:38,    171,    0.0,   15.1,   0.00,   0.00, 1010.0,   68.1, -999.0
23-06-2022, 00:28:49,    171,    0.0,   15.0,   0.00,   0.00, 1010.0,   68.1, -999.0
23-06-2022, 00:28:58,    171,    0.0,   15.0,   0.00,   0.00, 1010.0,   68.1, -999.0
23-06-2022, 00:29:08,    171,    0.0,   15.0,   0.00,   0.00, 1010.0,   68.1, -999.0
23-06-2022, 00:29:18,    171,    0.0,   15.0,   0.00,   0.00, 1010.0,   68.2, -999.0
23-06-2022, 00:29:28,    171,    0.0,   15.0,   0.00,   0.00, 1010.0,   68.0, -999.0
23-06-2022, 00:29:38,    171,    0.0,   15.0,   0.00,   0.00, 1010.0,   68.0, -999.0
23-06-2022, 00:29:48,    171,    0.0,   15.0,   0.00,   0.00, 1010.0,   68.1, -999.0
23-06-2022, 00:29:58,    171,    0.0,   15.0,   0.00,   0.00, 1010.0,   67.9, -999.0
23-06-2022, 00:30:08,    170,    0.0,   15.0,   0.00,   0.00, 1010.0,   67.8, -999.0
23-06-2022, 00:30:18,    171,    0.0,   15.0,   0.00,   0.00, 1010.0,   67.7, -999.0
23-06-2022, 00:30:28,    171,    0.0,   15.0,   0.00,   0.00, 1010.0,   68.0, -999.0
23-06-2022, 00:30:38,    169,    0.0,   15.0,   0.00,   0.00, 1010.0,   67.9, -999.0
23-06-2022, 00:30:48,    171,    0.0,   15.0,   0.00,   0.00, 1010.0,   68.1, -999.0
23-06-2022, 00:30:58,    171,    0.0,   15.0,   0.00,   0.00, 1010.0,   68.1, -999.0
23-06-2022, 00:31:07,    171,    0.0,   15.0,   0.00,   0.00, 1010.0,   68.2, -999.0
23-06-2022, 00:31:18,    171,    0.0,   15.0,   0.00,   0.00, 1010.0,   68.2, -999.0
23-06-2022, 00:31:28,    171,    0.0,   15.0,   0.00,   0.00, 1010.0,   68.2, -999.0
23-06-2022, 00:31:37,    171,    0.0,   15.0,   0.00,   0.00, 1010.0,   68.1, -999.0
23-06-2022, 00:31:47,    171,    0.0,   15.0,   0.00,   0.00, 1010.0,   68.2, -999.0
23-06-2022, 00:31:58,    171,    0.0,   15.0,   0.00,   0.00, 1010.0,   68.1, -999.0
23-06-2022, 00:32:07,    171,    0.0,   15.1,   0.00,   0.00, 1010.0,   68.1, -999.0
23-06-2022, 00:32:17,    171,    0.0,   15.0,   0.00,   0.00, 1010.0,   68.2, -999.0
23-06-2022, 00:32:27,    171,    0.0,   15.0,   0.00,   0.00, 1010.0,   68.1, -999.0
23-06-2022, 00:32:37,    171,    0.0,   14.9,   0.00,   0.00, 1010.0,   68.1, -999.0
23-06-2022, 00:32:47,    171,    0.0,   15.0,   0.00,   0.00, 1010.0,   68.1, -999.0
23-06-2022, 00:32:57,    171,    0.0,   15.0,   0.00,   0.00, 1010.0,   68.1, -999.0
23-06-2022, 00:33:07,    171,    0.0,   15.0,   0.00,   0.00, 1010.0,   68.1, -999.0
23-06-2022, 00:33:17,    171,    0.0,   15.0,   0.00,   0.00, 1010.0,   68.1, -999.0
23-06-2022, 00:33:27,    170,    0.0,   15.0,   0.00,   0.00, 1010.0,   68.2, -999.0
23-06-2022, 00:33:37,    171,    0.0,   15.0,   0.00,   0.00, 1010.0,   68.1, -999.0
23-06-2022, 00:33:47,    171,    0.0,   14.9,   0.00,   0.00, 1010.0,   68.1, -999.0
23-06-2022, 00:33:57,    171,    0.0,   14.9,   0.00,   0.00, 1010.0,   68.1, -999.0
23-06-2022, 00:34:07,    171,    0.0,   14.9,   0.00,   0.00, 1010.0,   68.1, -999.0
23-06-2022, 00:34:16,    171,    0.0,   14.9,   0.00,   0.00, 1010.0,   68.2, -999.0
23-06-2022, 00:34:27,    171,    0.0,   14.8,   0.00,   0.00, 1010.0,   68.2, -999.0
23-06-2022, 00:34:37,    169,    0.0,   14.9,   0.00,   0.00, 1010.0,   68.3, -999.0
23-06-2022, 00:34:46,    171,    0.0,   14.9,   0.00,   0.00, 1010.0,   68.2, -999.0
23-06-2022, 00:34:56,    171,    0.0,   14.9,   0.00,   0.00, 1010.0,   68.1, -999.0
23-06-2022, 00:35:06,    171,    0.0,   14.9,   0.00,   0.00, 1010.0,   68.2, -999.0
23-06-2022, 00:35:16,    171,    0.0,   14.9,   0.00,   0.00, 1010.0,   68.3, -999.0
23-06-2022, 00:35:26,    171,    0.0,   14.9,   0.00,   0.00, 1010.0,   68.2, -999.0
23-06-2022, 00:35:36,    171,    0.0,   14.9,   0.00,   0.00, 1010.0,   68.3, -999.0
23-06-2022, 00:35:46,    171,    0.0,   14.9,   0.00,   0.00, 1010.0,   68.2, -999.0
23-06-2022, 00:35:56,    171,    0.0,   14.9,   0.00,   0.00, 1010.0,   68.3, -999.0
23-06-2022, 00:36:06,    171,    0.0,   15.0,   0.00,   0.00, 1010.0,   68.2, -999.0
23-06-2022, 00:36:16,    171,    0.0,   15.0,   0.00,   0.00, 1010.0,   68.1, -999.0
23-06-2022, 00:36:26,    171,    0.0,   15.0,   0.00,   0.00, 1010.0,   68.2, -999.0
23-06-2022, 00:36:36,    171,    0.0,   15.1,   0.00,   0.00, 1010.0,   68.0, -999.0
23-06-2022, 00:36:46,    171,    0.0,   15.1,   0.00,   0.00, 1010.0,   68.1, -999.0
23-06-2022, 00:36:56,    171,    0.0,   15.0,   0.00,   0.00, 1010.0,   67.8, -999.0
23-06-2022, 00:37:06,    171,    0.0,   15.1,   0.00,   0.00, 1010.0,   68.0, -999.0
23-06-2022, 00:37:15,    171,    0.0,   15.0,   0.00,   0.00, 1010.0,   67.7, -999.0
23-06-2022, 00:37:25,    171,    0.0,   15.0,   0.00,   0.00, 1010.0,   67.9, -999.0
23-06-2022, 00:37:36,    171,    0.0,   15.0,   0.00,   0.00, 1010.0,   67.8, -999.0
23-06-2022, 00:37:45,    171,    0.0,   15.0,   0.00,   0.00, 1010.0,   67.8, -999.0
23-06-2022, 00:37:55,    171,    0.0,   14.9,   0.00,   0.00, 1010.0,   67.8, -999.0
23-06-2022, 00:38:06,    171,    0.0,   15.0,   0.00,   0.00, 1010.0,   67.7, -999.0
23-06-2022, 00:38:15,    171,    0.0,   14.9,   0.00,   0.00, 1010.0,   67.8, -999.0
23-06-2022, 00:38:25,    171,    0.0,   14.8,   0.00,   0.00, 1010.0,   67.8, -999.0
23-06-2022, 00:38:35,    171,    0.0,   14.9,   0.00,   0.00, 1010.0,   67.8, -999.0
23-06-2022, 00:38:45,    171,    0.0,   14.9,   0.00,   0.00, 1010.1,   67.8, -999.0
23-06-2022, 00:38:55,    171,    0.0,   15.0,   0.00,   0.00, 1010.0,   67.6, -999.0
23-06-2022, 00:39:05,    171,    0.0,   14.9,   0.00,   0.00, 1010.0,   67.8, -999.0
23-06-2022, 00:39:15,    171,    0.0,   15.0,   0.00,   0.00, 1010.0,   67.7, -999.0
23-06-2022, 00:39:25,    171,    0.0,   14.9,   0.00,   0.00, 1010.0,   67.7, -999.0
23-06-2022, 00:39:35,    171,    0.0,   14.9,   0.00,   0.00, 1010.0,   67.7, -999.0
23-06-2022, 00:39:45,    171,    0.0,   14.9,   0.00,   0.00, 1010.0,   67.6, -999.0
23-06-2022, 00:39:54,    171,    0.0,   14.9,   0.00,   0.00, 1010.0,   67.5, -999.0
23-06-2022, 00:40:05,    171,    0.0,   14.8,   0.00,   0.00, 1010.0,   67.6, -999.0
23-06-2022, 00:40:15,    171,    0.0,   14.8,   0.00,   0.00, 1010.0,   67.5, -999.0
23-06-2022, 00:40:24,    171,    0.0,   14.8,   0.00,   0.00, 1010.0,   67.4, -999.0
23-06-2022, 00:40:35,    171,    0.0,   14.8,   0.00,   0.00, 1010.0,   67.2, -999.0
23-06-2022, 00:40:45,    171,    0.0,   14.9,   0.00,   0.00, 1010.0,   67.2, -999.0
23-06-2022, 00:40:54,    171,    0.0,   14.9,   0.00,   0.00, 1010.0,   67.1, -999.0
23-06-2022, 00:41:04,    171,    0.0,   14.9,   0.00,   0.00, 1010.0,   67.1, -999.0
23-06-2022, 00:41:14,    171,    0.0,   14.8,   0.00,   0.00, 1010.0,   67.0, -999.0
23-06-2022, 00:41:24,    171,    0.0,   14.8,   0.00,   0.00, 1010.0,   67.0, -999.0
23-06-2022, 00:41:34,    171,    0.0,   14.7,   0.00,   0.00, 1010.0,   67.0, -999.0
23-06-2022, 00:41:44,    171,    0.0,   14.6,   0.00,   0.00, 1010.0,   66.9, -999.0
23-06-2022, 00:41:54,    171,    0.0,   14.7,   0.00,   0.00, 1010.0,   66.7, -999.0
23-06-2022, 00:42:04,    171,    0.0,   14.7,   0.00,   0.00, 1010.0,   66.7, -999.0
23-06-2022, 00:42:14,    171,    0.0,   14.6,   0.00,   0.00, 1010.0,   66.7, -999.0
23-06-2022, 00:42:24,    171,    0.0,   14.7,   0.00,   0.00, 1010.0,   66.9, -999.0
23-06-2022, 00:42:34,    171,    0.0,   14.7,   0.00,   0.00, 1010.0,   66.9, -999.0
23-06-2022, 00:42:44,    172,    0.0,   14.6,   0.00,   0.00, 1010.0,   66.9, -999.0
23-06-2022, 00:42:54,    171,    0.0,   14.6,   0.00,   0.00, 1010.0,   67.0, -999.0
23-06-2022, 00:43:04,    168,    0.0,   14.6,   0.00,   0.00, 1010.0,   67.0, -999.0
23-06-2022, 00:43:14,    171,    0.0,   14.8,   0.00,   0.00, 1010.0,   67.1, -999.0
23-06-2022, 00:43:23,    171,    0.0,   14.6,   0.00,   0.00, 1010.0,   67.0, -999.0
23-06-2022, 00:43:33,    171,    0.0,   14.6,   0.00,   0.00, 1010.0,   67.1, -999.0
23-06-2022, 00:43:44,    171,    0.0,   14.7,   0.00,   0.00, 1010.0,   66.9, -999.0
23-06-2022, 00:43:53,    171,    0.0,   14.7,   0.00,   0.00, 1010.0,   67.0, -999.0
23-06-2022, 00:44:03,    171,    0.0,   14.7,   0.00,   0.00, 1010.0,   67.1, -999.0
23-06-2022, 00:44:14,    171,    0.0,   14.7,   0.00,   0.00, 1010.0,   67.1, -999.0
23-06-2022, 00:44:23,    171,    0.0,   14.7,   0.00,   0.00, 1010.0,   67.0, -999.0
23-06-2022, 00:44:33,    171,    0.0,   14.7,   0.00,   0.00, 1010.0,   67.1, -999.0
23-06-2022, 00:44:43,    171,    0.0,   14.7,   0.00,   0.00, 1010.0,   67.0, -999.0
23-06-2022, 00:44:53,    171,    0.0,   14.6,   0.00,   0.00, 1010.0,   67.2, -999.0
23-06-2022, 00:45:03,    171,    0.0,   14.6,   0.00,   0.00, 1010.0,   67.2, -999.0
23-06-2022, 00:45:13,    171,    0.0,   14.7,   0.00,   0.00, 1010.0,   67.1, -999.0
23-06-2022, 00:45:23,    171,    0.0,   14.7,   0.00,   0.00, 1009.9,   67.1, -999.0
23-06-2022, 00:45:33,    171,    0.0,   14.6,   0.00,   0.00, 1009.9,   67.1, -999.0
23-06-2022, 00:45:43,    171,    0.0,   14.6,   0.00,   0.00, 1010.0,   67.2, -999.0
23-06-2022, 00:45:53,    171,    0.0,   14.6,   0.00,   0.00, 1010.0,   67.2, -999.0
23-06-2022, 00:46:02,    171,    0.0,   14.6,   0.00,   0.00, 1010.0,   67.2, -999.0
23-06-2022, 00:46:13,    171,    0.0,   14.6,   0.00,   0.00, 1009.9,   67.2, -999.0
23-06-2022, 00:46:23,    171,    0.0,   14.6,   0.00,   0.00, 1009.9,   67.2, -999.0
23-06-2022, 00:46:32,    171,    0.0,   14.7,   0.00,   0.00, 1010.0,   67.3, -999.0
23-06-2022, 00:46:42,    171,    0.0,   14.6,   0.00,   0.00, 1010.0,   67.3, -999.0